Regional Weather Roundup
Issued by NWS Charleston, SC

Current Version | Previous Version | Graphics & Text | Print | Product List | Glossary On
Versions: 1 2 3 4 5 6 7 8 9 10 11 12 13 14 15 16 17 18 19 20 21 22 23 24 25 26 27 28 29 30 31 32 33 34 35 36 37 38 39 40 41 42 43 44 45 46 47 48 49 50
000
ASUS42 KCHS 282027
RWRCHS

REGIONAL WEATHER ROUNDUP
NATIONAL WEATHER SERVICE CHARLESTON SC
400 PM EDT TUE JUL 28 2015

NOTE: "FAIR" INDICATES FEW OR NO CLOUDS BELOW 12,000 FEET WITH NO
SIGNIFICANT WEATHER AND/OR OBSTRUCTIONS TO VISIBILITY.

NOT ALL STATIONS ARE QUALITY CONTROLLED BY THE NATIONAL
WEATHER SERVICE. USE DATA WITH CAUTION...ESPECIALLY
DEWPOINT OBSERVATIONS.

SCZ027-030-031-034>040-042>050-282100-
...SOUTHEAST SOUTH CAROLINA...

CITY           SKY/WX    TMP DP  RH WIND       PRES   REMARKS
N CHARLESTON   MOSUNNY   90  70  51 E12       29.94F HX  95
WATERFRONT PRK   N/A     88  76  67 E10       29.93F HX  99
MOUNT PLEASANT FAIR      90  70  51 E8        29.95F HX  95
JOHNS ISLAND   FAIR      88  72  58 NE13      29.95S HX  94
PINOPOLIS      NOT AVBL
MONCKS CORNER  FAIR      93  68  43 E6        29.95S HX  97
SUMMERVILLE    FAIR      91  70  49 E5        29.95S HX  97
BEAUFORT MCAS  MOSUNNY   91  75  59 SE7       29.94F HX 101
BEAUFORT ARPT  FAIR      90  73  58 E10       29.94S HX  98
HILTON HEAD IS MOSUNNY   88  79  74 NE7       29.96F HX 102
WALTERBORO     CLEAR     97  64  34 E7        29.94F HX  99
ALLENDALE      FAIR      91  72  52 CALM      29.93S HX  98

...SOUTHERN MIDLANDS AND PEE DEE...

CITY           SKY/WX    TMP DP  RH WIND       PRES   REMARKS
GEORGETOWN     NOT AVBL
KINGSTREE      NOT AVBL
ORANGEBURG     MOSUNNY   95  64  35 VRB7      29.94F HX  97
BARNWELL       HVY RAIN  77  75  94 NW10      29.98R VSB 3/4
AIKEN          FAIR      93  64  38 SE8       29.98F HX  95
MANNING        FAIR      91  63  38 SE5       29.94S HX  92
COLUMBIA       PTSUNNY   91  70  49 E16G25    29.94S HX  96
SUMTER         PTSUNNY   94  65  38 VRB3      29.93S HX  96
FLORENCE       SUNNY     95  65  37 E8        29.94F HX  97
MYRTLE BEACH   SUNNY     88  72  58 E12       29.99F HX  94
N MYRTLE BEACH SUNNY     86  71  60 SE10      29.97F HX  91

$$

GAZ063-065-086>088-099>101-113>116-118-119-134>141-150-282100-
...SOUTHEAST GEORGIA...

CITY           SKY/WX    TMP DP  RH WIND       PRES   REMARKS
SAVANNAH ARPT  PTSUNNY   92  72  51 E8        29.94F HX  99
HUNTER AAF     MOSUNNY   90  77  66 E10       29.92F HX 102
FORT STEWART   MOSUNNY   92  75  58 E9        29.91F HX 103
STATESBORO     MOSUNNY   94  75  53 SE6       29.93F HX 105
SYLVANIA       PTCLDY    91  77  63 N7        29.94S HX 104
CLAXTON        FAIR      93  73  52 E7        29.92F HX 102

...CSRA...CENTRAL AND FAR SOUTHEAST GEORGIA...

CITY           SKY/WX    TMP DP  RH WIND       PRES   REMARKS
THOMSON        MOSUNNY   98  74  46 E5        29.97F HX 109
AUGUSTA-BUSH   MOSUNNY   96  72  45 S14       29.93F HX 104
AUGUSTA-DANIEL CLOUDY    96  71  44 VRB3      29.95F HX 103
SWAINSBORO     FAIR      97  72  44 CALM      29.94F HX 105
VIDALIA        HVY RAIN  95  70  43 E5        29.93F HX 101
EASTMAN        FAIR      98  71  41 SE6       29.96F HX 106
HAZLEHURST     FAIR      92  72  51 N3        29.93F HX 100
ALMA           MOSUNNY   92  72  51 SE6       29.93F HX  99
WAYCROSS       MOSUNNY   96  77  54 E7        29.92F HX 110
JESUP          FAIR      97  73  46 NE9       29.92F HX 107
BAXLEY         FAIR      95  72  46 E6        29.92F HX 103
BRUNSWICK      MOSUNNY   90  77  66 E15       29.94F HX 102
SAINT SIMONS   PTSUNNY   87  76  69 E14       29.94F HX  97

$$

SCZ027-028-034-036>038-045-046-048>050-GAZ119-141-282100-
...LAKE AND SUPPLEMENTAL COASTAL OBSERVATIONS...

STATION/POSITION TIME  TEMP    WIND        PRES    WAVE   SWELL
                       AIR SEA DIR/SP/G            HT/PER HT/PER/DIR
                 (UTC) (F)     (DEG/KT/KT) (MB)    (FT/S) (FT/S/D)
UPR LAKE MARION  NOT AVBL
WINYAH BAY       1945   83      60/ 10     1014.0F
LAKE MURRAY      1900   89     220/  4/  5 1013.5F
ACE BASIN NERRS  1900   89      90/  3     1015.0F
FORT PULASKI     2000   83 86   70/ 12/ 14 1014.6F
SAPELO ISLAND    2000   89      60/ 11     1013.0F

$$

ANZ835-935-AMZ111-154-330-350-352-354-370-450-454-472-282100-
...C-MAN AND BUOY OBSERVATIONS...

STATION/POSITION TIME  TEMP    WIND        PRES    WAVE   SWELL
                       AIR SEA DIR/SP/G            HT/PER HT/PER/DIR
                 (UTC) (F)     (DEG/KT/KT) (MB)    (FT/S) (FT/S/D)
BUOY 41004       1950   84 85   50/ 10/ 14 1013.5F   3/ 7   2/ 7
BUOY 41008       1950   82 82   50/ 10/ 12 1014.0F   2/11   2/160/11
FOLLY BEACH CMAN 2000   84      70/ 13/ 14 1014.6F
CAPERS NEARSHORE 1908   82      60/ 12/ 16 1014.9
FRIPP NEARSHORE  1900   84      70/ 14/ 16 1014.2F


STATION/POSITION TIME  TEMP    WIND        PRES    WAVE   SWELL
                       AIR SEA DIR/SP/G            HT/PER HT/PER/DIR
                 (UTC) (F)     (DEG/KT/KT) (MB)    (FT/S) (FT/S/D)
5E ST. MARYS GA  1921      83                N/A     2/11
FRYING PAN BUOY  1950   84 84   70/ 14/ 16 1014.7F   5/ 6   3/130/ 6
BUOY 41025       NOT AVBL
CAPE LOOKOUT NC  2000   82      90/ 11/ 12 1015.1F
BUOY 41002       1950   81 82  220/ 23/ 29 1014.5F   8/ 6
BUOY 41010       1920   85 84  210/ 14/ 16 1015.1F
ST AUGUSTINE FL  2000   81 81   20/ 11/ 12 1014.1F


$$



USA.gov is the U.S. government's official web portal to all federal, state and local government web resources and services.